EW6519 Weather Reports


Display with metric or nautical units.
time (UTC)temp
F
wind
direction
speed
MPH
gust
MPH
rain 1hr
in
rain 24hr
in
rain mn
in
humidity
%
barometer
mb
20260507233106 58 205 0.0 0.0 0.00 0.00 0.00 43 1013.2
20260507231504 58 37 0.0 2.0 0.00 0.00 0.00 43 1013.1
20260507230004 58 284 0.0 0.0 0.00 0.00 0.00 40 1013.3
20260507224504 59 276 0.0 0.0 0.00 0.00 0.00 41 1013.3
20260507223003 59 238 0.0 0.0 0.00 0.00 0.00 41 1013.2
20260507221501 59 233 0.0 0.0 0.00 0.00 0.00 41 1013.1
20260507220003 60 61 0.0 4.0 0.00 0.00 0.00 39 1013.3
20260507214600 60 278 0.0 8.0 0.00 0.00 0.00 40 1013.3
20260507213058 59 281 0.0 8.0 0.00 0.00 0.00 38 1013.4
20260507211604 60 311 2.0 7.0 0.00 0.00 0.00 37 1013.4
20260507210109 62 245 2.0 8.0 0.00 0.00 0.00 37 1013.3
20260507204558 60 316 3.0 11.0 0.00 0.00 0.00 37 1013.2
20260507203121 62 288 1.0 8.0 0.00 0.00 0.00 38 1013.3
20260507201553 61 276 0.0 5.0 0.00 0.00 0.00 40 1013.3
20260507200053 60 320 0.0 7.0 0.00 0.00 0.00 39 1013.4
20260507194601 61 115 0.0 5.0 0.00 0.00 0.00 38 1013.4
20260507193048 60 282 1.0 5.0 0.00 0.00 0.00 40 1013.6
20260507191549 59 286 1.0 10.0 0.00 0.00 0.00 38 1013.6
20260507190055 60 273 1.0 7.0 0.00 0.00 0.00 39 1013.6
20260507184549 61 302 0.0 5.0 0.00 0.00 0.00 40 1013.6
20260507183044 59 7 1.0 7.0 0.00 0.00 0.00 41 1013.7
20260507181544 60 304 2.0 5.0 0.00 0.00 0.00 39 1013.8
20260507180044 60 297 1.0 4.0 0.00 0.00 0.00 39 1014.0
20260507174546 60 264 1.0 8.0 0.00 0.00 0.00 38 1014.2
20260507173110 61 259 0.0 4.0 0.00 0.00 0.00 40 1014.4
20260507171543 58 298 1.0 6.0 0.00 0.00 0.00 43 1014.6
20260507170040 59 23 1.0 5.0 0.00 0.00 0.00 40 1014.7
20260507164538 59 261 1.0 4.0 0.00 0.00 0.00 42 1014.8
20260507163039 58 278 0.0 4.0 0.00 0.00 0.00 43 1015.0
20260507161541 57 236 0.0 5.0 0.00 0.00 0.00 42 1015.0
20260507160032 57 357 0.0 5.0 0.00 0.00 0.00 43 1015.0
20260507154820 57 309 0.0 6.0 0.00 0.00 0.00 44 1014.8
20260507154501 56 307 0.0 6.0 0.00 0.00 0.00 42 1015.0
20260507153101 56 40 0.0 9.0 0.00 0.00 0.00 43 1014.9
20260507153001 56 266 2.0 9.0 0.00 0.00 0.00 43 1014.9
20260507151600 55 18 1.0 4.0 0.00 0.00 0.00 45 1014.9
20260507150055 54 43 0.0 5.0 0.00 0.00 0.00 50 1014.8
20260507144608 54 332 1.0 4.0 0.00 0.00 0.00 49 1014.9
20260507143100 54 6 1.0 6.0 0.00 0.00 0.00 48 1015.0
20260507141558 52 20 1.0 9.0 0.00 0.00 0.00 48 1015.0
20260507140050 53 286 0.0 4.0 0.00 0.00 0.00 50 1015.1
20260507134552 51 273 0.0 7.0 0.00 0.00 0.00 50 1015.0
20260507133118 51 307 2.0 6.0 0.00 0.00 0.00 52 1015.0
20260507131545 50 303 1.0 7.0 0.00 0.00 0.00 54 1015.1
20260507130050 50 326 0.0 0.0 0.00 0.00 0.00 61 1015.0
20260507124536 48 278 0.0 5.0 0.00 0.00 0.00 65 1015.0
20260507123040 46 289 0.0 0.0 0.00 0.00 0.00 68 1015.1
20260507121534 46 340 0.0 0.0 0.00 0.00 0.00 69 1015.2
20260507120035 45 25 0.0 0.0 0.00 0.00 0.00 72 1015.1
20260507114532 44 286 0.0 0.0 0.00 0.00 0.00 72 1015.1
20260507113034 44 20 0.0 0.0 0.00 0.00 0.00 74 1015.1
20260507111527 44 314 0.0 0.0 0.00 0.00 0.00 74 1014.9
20260507110033 43 293 0.0 2.0 0.00 0.00 0.00 75 1014.7
20260507104523 43 261 0.0 0.0 0.00 0.00 0.00 76 1014.4
20260507103028 43 292 0.0 0.0 0.00 0.00 0.00 79 1014.5
20260507101531 44 284 0.0 0.0 0.00 0.00 0.00 79 1014.5
20260507100022 44 291 0.0 0.0 0.00 0.00 0.00 80 1014.4
20260507094518 44 298 0.0 0.0 0.00 0.00 0.00 81 1014.5
20260507093016 44 295 0.0 0.0 0.00 0.00 0.00 81 1014.4
20260507091518 44 294 0.0 0.0 0.00 0.00 0.00 81 1014.2
20260507090013 45 294 0.0 0.0 0.00 0.00 0.00 82 1014.2
20260507084514 45 308 0.0 0.0 0.00 0.02 0.00 83 1014.1
20260507083012 45 326 0.0 0.0 0.00 0.02 0.00 85 1014.0
20260507081511 45 326 0.0 0.0 0.00 0.02 0.00 86 1013.9
20260507080012 45 326 0.0 0.0 0.00 0.02 0.00 86 1014.0
20260507074509 45 326 0.0 0.0 0.00 0.07 0.00 87 1013.8
20260507073007 45 326 0.0 0.0 0.00 0.07 0.00 86 1013.9
20260507071508 45 326 0.0 0.0 0.00 0.07 0.00 85 1013.9
20260507070010 46 326 0.0 0.0 0.00 0.07 0.00 86 1013.7
20260507064504 46 326 0.0 0.0 0.00 0.23 0.00 86 1013.9
20260507063002 46 326 0.0 0.0 0.00 0.23 0.00 85 1014.0
20260507061502 46 326 0.0 0.0 0.00 0.23 0.00 85 1014.0
20260507060101 46 326 0.0 0.0 0.00 0.23 0.00 83 1014.0
20260507054558 47 326 0.0 0.0 0.00 0.37 0.00 83 1014.0
20260507053122 47 326 0.0 0.0 0.00 0.37 0.00 82 1014.0
20260507051556 47 326 0.0 0.0 0.00 0.37 0.00 81 1013.9
20260507050053 48 326 0.0 0.0 0.00 0.37 0.00 81 1014.0
20260507044603 48 326 0.0 0.0 0.00 0.43 0.00 79 1014.1
20260507043051 49 326 0.0 0.0 0.00 0.43 0.00 77 1014.2
20260507041551 49 326 0.0 0.0 0.00 0.43 0.00 77 1014.2
20260507040048 49 326 0.0 0.0 0.00 0.43 0.00 76 1014.0
20260507034547 50 326 0.0 0.0 0.00 0.44 0.43 75 1014.0
20260507033058 50 4 0.0 0.0 0.00 0.44 0.43 74 1014.1
20260507031556 49 4 0.0 0.0 0.00 0.44 0.43 73 1014.1
20260507024602 50 4 0.0 0.0 0.00 0.48 0.43 72 1014.1
20260507023040 50 4 0.0 0.0 0.00 0.48 0.43 71 1014.0
20260507021547 51 4 0.0 0.0 0.00 0.48 0.43 70 1013.9
20260507020051 52 4 0.0 0.0 0.00 0.48 0.43 69 1013.8
20260507014548 52 4 0.0 0.0 0.00 0.59 0.43 68 1013.6
20260507013040 53 4 0.0 0.0 0.00 0.59 0.43 66 1013.6
20260507011537 53 4 0.0 0.0 0.00 0.59 0.43 65 1013.3
20260507010040 54 6 0.0 0.0 0.00 0.59 0.43 64 1013.2
20260507004532 54 283 0.0 0.0 0.00 0.60 0.43 62 1013.1
20260507003031 55 292 0.0 1.0 0.00 0.60 0.43 61 1013.2
20260507001534 55 339 0.0 0.0 0.00 0.60 0.43 59 1012.9
20260507000029 56 20 0.0 1.0 0.00 0.60 0.43 60 1012.9
20260506234528 57 292 0.0 2.0 0.00 0.61 0.43 59 1012.5